Flag for France Weather past 2 weeks in Orléans, France

Now
82 °F

Sunny.


Feels Like: 82 °F
Forecast: 69 / 96 °F
Wind: 7 mph from East

Location: Orleans Airport

Current Time: Jun 30, 2015 at 10:23:17 PM

Latest Report: Jun 30, 2015 at 10:00 PM


Visibility: 10 mi

Pressure: 29.95 "Hg

Humidity: 42%

Dew point: 57 °F

Location of OrléansLocation

Historic Weather in Orléans — Graph

°F

Orléans temperature yesterday

Maximum temperature yesterday: 84 °F (at 4:00 PM)
Minimum temperature yesterday: 54 °F (at 6:00 AM)
Average temperature yesterday: 71 °F

Past Weeks' High & Low Weather Summary

 TemperatureHumidityPressure
High95 °F (Jun 30, 6:00 PM)100% (Jun 19, 4:30 AM)30.33 "Hg (Jun 19, 4:30 AM)
Low43 °F (Jun 23, 5:00 AM)23% (Jun 30, 6:00 PM)29.86 "Hg (Jun 22, 4:30 PM)
Average66 °F63%30.14 "Hg
* Reported Jun 15 9:00 PM — Jun 30 9:00 PM, Orléans, Weather by CustomWeather, © 2015

Note: Actual official high and low records may vary slightly from our data, if they occured in-between our weather recording intervals... More about our weather records

Advertising

Orléans weather history for previous 24 hours

 ConditionsComfort  
Time TempWeatherWind HumidityBarometerVisibility
9:00 PM
Tue, Jun 30
90 °FSunny.9 mph31%29.95 "Hg10 mi
8:30 PM91 °FSunny.9 mph30%29.95 "Hg10 mi
8:00 PM93 °FSunny.10 mph26%29.95 "Hg10 mi
7:00 PM93 °FPassing clouds.10 mph26%29.95 "HgN/A
6:30 PM93 °FPassing clouds.8 mph24%29.95 "HgN/A
6:00 PM95 °FPassing clouds.8 mph23%29.98 "HgN/A
5:00 PM93 °FSunny.5 mph24%29.98 "Hg10 mi
4:30 PM93 °FPassing clouds.8 mph24%29.98 "HgN/A
4:00 PM93 °FPassing clouds.8 mph24%29.98 "HgN/A
3:00 PM91 °FPassing clouds.8 mph28%30.01 "HgN/A
2:30 PM91 °FPassing clouds.8 mph28%30.01 "HgN/A
2:00 PM90 °FPassing clouds.9 mph27%30.04 "HgN/A
1:30 PM88 °FPassing clouds.9 mph29%30.04 "HgN/A
1:00 PM86 °FPassing clouds.9 mph33%30.07 "HgN/A
12:30 PM84 °FPassing clouds.12 mph31%30.07 "HgN/A
12:00 PM84 °FPassing clouds.12 mph31%30.07 "HgN/A
11:30 AM82 °FSunny.12 mph32%30.07 "Hg10 mi
11:00 AM82 °FPassing clouds.10 mph37%30.09 "HgN/A
10:30 AM81 °FSunny.12 mph42%30.09 "Hg10 mi
10:00 AM77 °FSunny.8 mph51%30.09 "Hg10 mi
9:30 AM75 °FSunny.9 mph50%30.09 "Hg10 mi
9:00 AM73 °FSunny.8 mph50%30.09 "Hg10 mi
8:30 AM70 °FSunny.8 mph57%30.09 "Hg10 mi
8:00 AM66 °FPassing clouds.7 mph64%30.09 "HgN/A
7:30 AM63 °FSunny.6 mph73%30.09 "Hg10 mi
7:00 AM59 °FSunny.6 mph77%30.12 "Hg10 mi
6:30 AM55 °FClear.6 mph88%30.09 "Hg10 mi
6:00 AM55 °FClear.5 mph82%30.12 "Hg10 mi
5:30 AM55 °FClear.5 mph88%30.12 "Hg10 mi
5:00 AM55 °FClear.5 mph88%30.12 "Hg10 mi
4:30 AM57 °FClear.3 mph82%30.12 "Hg10 mi
4:00 AM57 °FClear.3 mph82%30.12 "Hg10 mi
3:30 AM59 °FClear.3 mph77%30.12 "Hg10 mi
3:00 AM61 °FClear.5 mph72%30.12 "Hg10 mi
2:30 AM61 °FClear.2 mph72%30.12 "Hg10 mi
2:00 AM61 °FClear.2 mph72%30.15 "Hg10 mi
1:30 AM63 °FClear.3 mph68%30.15 "Hg10 mi
1:00 AM64 °FClear.5 mph68%30.15 "Hg10 mi
12:30 AM64 °FClear.5 mph68%30.15 "Hg10 mi
12:00 AM66 °FClear.5 mph64%30.15 "Hg10 mi
11:30 PM
Mon, Jun 29
68 °FClear.6 mph64%30.15 "Hg10 mi
11:00 PM72 °FClear.6 mph57%30.15 "Hg10 mi
10:30 PM73 °FSunny.6 mph57%30.15 "Hg10 mi
10:00 PM75 °FSunny.5 mph50%30.15 "Hg10 mi
Weather by CustomWeather, © 2015

See weather overviewHow to use our weather pages